Location: Hartford
(41.7640°N, 72.6860°W)
Time: 23:06:24
(UTC-04:00)

Amateur Radio Satellites - All Passes

Search period start: 25 July 2014 22:36
Search period end: 26 July 2014 22:36
Location: Hartford, 41.7640°N, 72.6860°W

Satellite Date Start Highest point End Downlink Frequencies (MHz)
Time Altitude Azimuth
SO-50 25 Jul 22:58:14 23:02:48 46° 243° (WSW) 23:07:23 436.795 FM
Lituanica SAT-1 25 Jul 23:16:48 23:18:40 35° 141° (SE) 23:20:33 437.275 MHz beacon
MaSat-1 25 Jul 23:23:55 23:27:18 23° 310° (NW) 23:31:05 437.345 MHz
FUNcube-1 25 Jul 23:32:12 23:35:21 19° 266° (W) 23:38:28 145.950 - 145.970 MHz USB
UOSAT-12 25 Jul 23:38:52 23:43:21 40° 50° (NE) 23:47:46 437.025 FM, 437.400 FM
ISS 25 Jul 23:46:25 23:47:49 12° 129° (SE) 23:49:14 145.800 FM
RS-15 26 Jul 00:25:01 00:35:27 51° 249° (WSW) 00:46:18 29.354 - 29.394 USB, Beacon 29.352 USB
Sapphire 26 Jul 00:34:53 00:38:37 19° 105° (ESE) 00:42:22 437.095 MHz 1200 baud AX-25 AFSK
Lituanica SAT-1 26 Jul 00:49:57 00:51:13 15° 338° (NNW) 00:52:29 437.275 MHz beacon
PCSat 26 Jul 01:07:06 01:12:06 40° 112° (ESE) 01:17:09 145.825 MHz
Oscar 19 26 Jul 01:08:10 01:10:15 12° 89° (E) 01:12:19 437.125 CW, 437.150 USB
UOSAT-12 26 Jul 01:19:26 01:23:18 26° 248° (WSW) 01:27:08 437.025 FM, 437.400 FM
ISS 26 Jul 01:20:45 01:24:06 80° 326° (NW) 01:27:28 145.800 FM
Oscar 16 26 Jul 01:34:15 01:38:23 24° 94° (E) 01:42:29 437.025 USB, Beacon 2401.1428
ITAMSAT 1 26 Jul 01:49:06 01:51:44 14° 90° (E) 01:54:21 435.822 SSB
AO-Echo 26 Jul 01:51:16 01:54:11 15° 90° (E) 01:57:02 ?
AO-27 26 Jul 02:06:22 02:10:16 21° 93° (E) 02:14:09 436.795 MHz FM
Uribyol 2 26 Jul 02:08:18 02:12:22 23° 94° (E) 02:16:24 436.500 FM
Sapphire 26 Jul 02:16:12 02:21:32 60° 303° (WNW) 02:26:55 437.095 MHz 1200 baud AX-25 AFSK
JAS-1B 26 Jul 02:29:07 02:37:14 31° 90° (E) 02:44:24 435.800 - 435.900 CW/SSB
Oscar 19 26 Jul 02:44:59 02:50:10 79° 286° (WNW) 02:55:20 437.125 CW, 437.150 USB
PCSat 26 Jul 02:50:48 02:55:36 32° 310° (NW) 03:00:26 145.825 MHz
AO-40 26 Jul 02:55:44 04:24:56 20° 224° (SW) 07:06:12 Beacon 2401.320
ISS 26 Jul 02:58:38 03:01:14 20° 344° (NNW) 03:03:50 145.800 FM
Oscar 16 26 Jul 03:13:02 03:17:52 42° 290° (WNW) 03:22:42 437.025 USB, Beacon 2401.1428
TMSAT-1 26 Jul 03:26:14 03:31:06 36° 97° (E) 03:35:55 436.925 FM
ITAMSAT 1 26 Jul 03:26:34 03:31:45 71° 287° (WNW) 03:36:52 435.822 SSB
AO-Echo 26 Jul 03:28:21 03:33:26 63° 287° (WNW) 03:38:19 ?
OPAL 26 Jul 03:29:13 03:34:00 51° 69° (ENE) 03:38:47 ?
AO-27 26 Jul 03:45:03 03:50:01 47° 290° (WNW) 03:54:57 436.795 MHz FM
Uosat F 26 Jul 03:46:30 03:47:53 11° 89° (E) 03:49:14 435.120 FM
Uribyol 2 26 Jul 03:47:09 03:52:01 43° 290° (WNW) 03:56:52 436.500 FM
Gurwin Techsat 1B 26 Jul 03:48:07 03:53:28 78° 103° (ESE) 03:58:46 435.225 FM
AO-7 26 Jul 03:59:14 04:05:20 22° 92° (E) 04:11:21 29.400 - 29.500 MHz
Sapphire 26 Jul 04:03:56 04:06:08 12° 324° (NW) 04:08:20 437.095 MHz 1200 baud AX-25 AFSK
JAS-1B 26 Jul 04:18:52 04:28:22 65° 291° (WNW) 04:36:36 435.800 - 435.900 CW/SSB
Oscar 19 26 Jul 04:27:31 04:28:38 11° 303° (WNW) 04:29:45 437.125 CW, 437.150 USB
ISS 26 Jul 04:36:46 04:38:53 16° 5° (N) 04:41:01 145.800 FM
TMSAT-1 26 Jul 05:06:21 05:10:53 30° 294° (WNW) 05:15:25 436.925 FM
OPAL 26 Jul 05:09:45 05:13:10 19° 265° (W) 05:16:35 ?
Uosat F 26 Jul 05:22:14 05:27:17 83° 285° (WNW) 05:32:17 435.120 FM
Lituanica SAT-1 26 Jul 05:28:17 05:30:18 67° 34° (NE) 05:32:19 437.275 MHz beacon
Gurwin Techsat 1B 26 Jul 05:29:52 05:32:45 15° 300° (WNW) 05:35:38 435.225 FM
STRAND 1 26 Jul 05:47:36 05:51:48 26° 65° (ENE) 05:56:01 ?
AO-7 26 Jul 05:50:34 05:58:56 80° 290° (WNW) 06:07:12 29.400 - 29.500 MHz
MaSat-1 26 Jul 06:04:35 06:07:59 17° 46° (NE) 06:11:21 437.345 MHz
JAS-1B 26 Jul 06:11:17 06:16:50 17° 313° (NW) 06:22:06 435.800 - 435.900 CW/SSB
Oscar 10/S400 26 Jul 06:11:59 07:29:23 32° 244° (WSW) 11:15:49 145.825 - 145.975 CW/USB, Beacon 145.810 USB
ISS 26 Jul 06:13:18 06:16:23 32° 25° (NNE) 06:19:27 145.800 FM
JAS-2 26 Jul 06:16:36 06:21:31 25° 91° (E) 06:26:00 435.800 - 435.900 CW/SSB, 435.910 FM
KITSAT 1 26 Jul 06:33:53 06:41:37 51° 112° (ESE) 06:49:22 435.175 FM
Hamsat 26 Jul 06:41:33 06:45:47 57° 100° (E) 06:50:02 145.90 MHz
Uosat F 26 Jul 07:04:00 07:05:14 11° 303° (WNW) 07:06:28 435.120 FM
PANSAT 26 Jul 07:09:14 07:09:30 10° 172° (S) 07:09:46 not established
STRAND 1 26 Jul 07:25:59 07:30:47 39° 262° (W) 07:35:37 ?
Saudisat 1A 26 Jul 07:31:27 07:34:19 17° 110° (ESE) 07:37:12 436.775 MHz
MaSat-1 26 Jul 07:40:43 07:46:06 86° 245° (WSW) 07:51:11 437.345 MHz
AO-7 26 Jul 07:45:02 07:50:27 20° 311° (NW) 07:55:50 29.400 - 29.500 MHz
SO-67 26 Jul 07:45:43 07:49:04 45° 99° (E) 07:52:24 435.3500 MHz FM
ISS 26 Jul 07:49:59 07:53:09 38° 222° (SW) 07:56:17 145.800 FM
JAS-2 26 Jul 08:01:05 08:06:55 45° 292° (WNW) 08:12:08 435.800 - 435.900 CW/SSB, 435.910 FM
HO-68 26 Jul 08:14:51 08:15:45 10° 86° (E) 08:16:39 435.675 MHz FM
Hamsat 26 Jul 08:19:05 08:21:17 14° 296° (WNW) 08:23:29 145.90 MHz
KITSAT 1 26 Jul 08:29:38 08:37:11 41° 313° (NW) 08:44:47 435.175 FM
PANSAT 26 Jul 08:47:56 08:48:52 11° 185° (S) 08:49:48 not established
Saudisat 1A 26 Jul 09:09:11 09:13:30 52° 307° (NW) 09:17:51 436.775 MHz
SO-67 26 Jul 09:20:42 09:21:44 11° 295° (WNW) 09:22:46 435.3500 MHz FM
MaSat-1 26 Jul 09:21:08 09:22:33 11° 263° (W) 09:23:57 437.345 MHz
Sapphire 26 Jul 09:21:20 09:25:20 20° 44° (NE) 09:29:19 437.095 MHz 1200 baud AX-25 AFSK
Oscar 11 26 Jul 09:32:12 09:34:28 14° 91° (E) 09:36:42 145.825 FM, Beacon 2401.500 USB
PCSat 26 Jul 09:54:33 09:59:33 36° 52° (NE) 10:04:31 145.825 MHz
HO-68 26 Jul 09:57:33 10:04:41 69° 104° (ESE) 10:11:46 435.675 MHz FM
UKube-1 26 Jul 10:18:04 10:22:27 86° 104° (ESE) 10:26:47 145.840 MHz, 145.915 MHz
KITSAT 1 26 Jul 10:30:55 10:35:12 15° 340° (NNW) 10:39:29 435.175 FM
Sapphire 26 Jul 11:03:54 11:09:19 72° 243° (WSW) 11:14:42 437.095 MHz 1200 baud AX-25 AFSK
Oscar 11 26 Jul 11:06:44 11:10:58 52° 287° (WNW) 11:15:10 145.825 FM, Beacon 2401.500 USB
FUNcube-1 26 Jul 11:19:34 11:23:45 78° 102° (ESE) 11:27:56 145.950 - 145.970 MHz USB
PCSat 26 Jul 11:38:03 11:42:55 34° 250° (WSW) 11:47:46 145.825 MHz
HO-68 26 Jul 11:46:15 11:51:47 25° 302° (WNW) 11:57:18 435.675 MHz FM
Oscar 19 26 Jul 12:24:48 12:28:25 20° 63° (ENE) 12:32:04 437.125 CW, 437.150 USB
KITSAT 1 26 Jul 12:31:49 12:34:56 12° 11° (NNE) 12:38:03 435.175 FM
RS-15 26 Jul 12:38:45 12:47:27 28° 103° (ESE) 12:55:59 29.354 - 29.394 USB, Beacon 29.352 USB
Oscar 16 26 Jul 12:51:25 12:56:03 36° 68° (ENE) 13:00:42 437.025 USB, Beacon 2401.1428
AO-Echo 26 Jul 13:03:46 13:07:50 23° 64° (ENE) 13:11:56 ?
ITAMSAT 1 26 Jul 13:06:52 13:10:56 24° 64° (ENE) 13:15:01 435.822 SSB
JAS-1B 26 Jul 13:12:45 13:20:11 30° 56° (NE) 13:28:10 435.800 - 435.900 CW/SSB
SO-50 26 Jul 13:13:18 13:17:38 54° 119° (ESE) 13:22:04 436.795 FM
AO-27 26 Jul 13:24:33 13:29:13 34° 67° (ENE) 13:33:54 436.795 MHz FM
Uribyol 2 26 Jul 13:26:16 13:31:00 37° 68° (ENE) 13:35:44 436.500 FM
Gurwin Techsat 1B 26 Jul 13:32:07 13:35:28 17° 61° (ENE) 13:38:50 435.225 FM
Oscar 19 26 Jul 14:02:23 14:07:22 53° 260° (W) 14:12:23 437.125 CW, 437.150 USB
KITSAT 1 26 Jul 14:26:43 14:33:37 29° 40° (NE) 14:40:27 435.175 FM
Oscar 16 26 Jul 14:31:06 14:35:26 28° 265° (W) 14:39:48 437.025 USB, Beacon 2401.1428
AO-Echo 26 Jul 14:41:08 14:46:14 49° 261° (W) 14:51:25 ?
ITAMSAT 1 26 Jul 14:45:09 14:50:08 45° 261° (W) 14:55:09 435.822 SSB
TMSAT-1 26 Jul 14:47:10 14:52:20 57° 72° (ENE) 14:57:32 436.925 FM
RS-15 26 Jul 14:47:27 14:58:36 80° 304° (NW) 15:09:36 29.354 - 29.394 USB, Beacon 29.352 USB
SO-50 26 Jul 14:55:06 14:58:32 21° 318° (NW) 15:02:01 436.795 FM
AO-7 26 Jul 14:58:22 15:05:34 34° 58° (ENE) 15:12:45 29.400 - 29.500 MHz
Uosat F 26 Jul 14:59:06 15:02:28 18° 62° (ENE) 15:05:49 435.120 FM
JAS-1B 26 Jul 15:00:58 15:09:38 77° 257° (WSW) 15:19:29 435.800 - 435.900 CW/SSB
AO-27 26 Jul 15:04:10 15:08:43 30° 264° (W) 15:13:18 436.795 MHz FM
Uribyol 2 26 Jul 15:06:06 15:10:31 28° 265° (W) 15:14:57 436.500 FM
Gurwin Techsat 1B 26 Jul 15:09:36 15:14:53 67° 258° (WSW) 15:20:12 435.225 FM
UOSAT-12 26 Jul 15:29:49 15:34:25 89° 300° (WNW) 15:39:09 437.025 FM, 437.400 FM
OPAL 26 Jul 15:40:42 15:42:49 13° 92° (E) 15:44:56 ?
Saudisat 1A 26 Jul 15:56:54 16:00:04 19° 42° (NE) 16:03:12 436.775 MHz
KITSAT 1 26 Jul 16:21:45 16:29:51 78° 242° (WSW) 16:37:52 435.175 FM
TMSAT-1 26 Jul 16:29:02 16:32:37 18° 269° (W) 16:36:13 436.925 FM
JAS-2 26 Jul 16:29:12 16:33:56 18° 57° (ENE) 16:38:30 435.800 - 435.900 CW/SSB, 435.910 FM
Uosat F 26 Jul 16:35:49 16:40:47 58° 259° (W) 16:45:47 435.120 FM
AO-7 26 Jul 16:49:41 16:57:53 60° 257° (WSW) 17:06:10 29.400 - 29.500 MHz
JAS-1B 26 Jul 16:56:35 17:01:47 17° 278° (W) 17:07:20 435.800 - 435.900 CW/SSB
RS-15 26 Jul 17:03:44 17:12:57 29° 332° (NNW) 17:22:10 29.354 - 29.394 USB, Beacon 29.352 USB
UOSAT-12 26 Jul 17:12:29 17:15:16 16° 322° (NW) 17:18:06 437.025 FM, 437.400 FM
OPAL 26 Jul 17:17:10 17:22:14 78° 288° (WNW) 17:27:20 ?
Hamsat 26 Jul 17:35:17 17:39:12 41° 72° (ENE) 17:43:09 145.90 MHz
Saudisat 1A 26 Jul 17:35:41 17:40:02 60° 240° (WSW) 17:44:21 436.775 MHz
JAS-2 26 Jul 18:10:07 18:17:58 80° 74° (ENE) 18:25:24 435.800 - 435.900 CW/SSB, 435.910 FM
KITSAT 1 26 Jul 18:19:53 18:23:54 15° 261° (W) 18:27:55 435.175 FM
SO-67 26 Jul 18:20:10 18:22:26 17° 68° (ENE) 18:24:43 435.3500 MHz FM
HO-68 26 Jul 18:45:37 18:46:51 11° 47° (NE) 18:48:05 435.675 MHz FM
OPAL 26 Jul 18:59:09 19:00:16 11° 305° (NW) 19:01:24 ?
Hamsat 26 Jul 19:12:42 19:15:22 16° 268° (W) 19:18:03 145.90 MHz
RS-15 26 Jul 19:22:26 19:30:18 21° 8° (N) 19:38:15 29.354 - 29.394 USB, Beacon 29.352 USB
STRAND 1 26 Jul 19:35:55 19:41:02 69° 102° (ESE) 19:46:05 ?
SO-67 26 Jul 19:52:17 19:55:18 28° 264° (W) 19:58:20 435.3500 MHz FM
JAS-2 26 Jul 19:57:54 20:03:32 21° 270° (W) 20:09:01 435.800 - 435.900 CW/SSB, 435.910 FM
SO-50 26 Jul 20:06:13 20:07:32 11° 33° (NNE) 20:08:52 436.795 FM
HO-68 26 Jul 20:26:04 20:32:57 53° 67° (ENE) 20:39:52 435.675 MHz FM
Oscar 11 26 Jul 20:28:37 20:30:23 12° 62° (ENE) 20:32:10 145.825 FM, Beacon 2401.500 USB
UKube-1 26 Jul 21:13:37 21:17:59 78° 75° (ENE) 21:22:23 145.840 MHz, 145.915 MHz
STRAND 1 26 Jul 21:16:38 21:19:38 16° 299° (WNW) 21:22:39 ?
MaSat-1 26 Jul 21:32:44 21:36:24 38° 107° (ESE) 21:40:39 437.345 MHz
RS-15 26 Jul 21:36:22 21:46:41 43° 41° (NE) 21:57:16 29.354 - 29.394 USB, Beacon 29.352 USB
SO-50 26 Jul 21:44:29 21:49:09 54° 53° (NE) 21:53:52 436.795 FM
Oscar 11 26 Jul 22:01:45 22:06:02 66° 259° (WSW) 22:10:20 145.825 FM, Beacon 2401.500 USB
HO-68 26 Jul 22:14:46 22:20:54 30° 265° (W) 22:27:05 435.675 MHz FM
FUNcube-1 26 Jul 22:16:07 22:20:25 64° 75° (ENE) 22:24:39 145.950 - 145.970 MHz USB
UOSAT-12 26 Jul 22:20:26 22:23:08 15° 37° (NE) 22:25:50 437.025 FM, 437.400 FM
